FFT1748 KPHX-KDEN

Flight info

Callsign FFT1748
Flight time 1h 21m
Altitude 39000
Route MRBIL1 JARPA CRUDD TBARR4
Aircraft A20N/M-SDE2E3FGHIRWXY/LB1

Departure

Time 2026-05-06 18:39
Airport Phoenix Sky Harbor International Airport (KPHX)

Arrival

Time 2026-05-06 20:00
Airport Denver International Airport (KDEN)
Time Latitude Longitude Altitude Speed Heading
2026-05-06 18:31 33.43254 -112.00731 1120 ft 12 kts 180°
2026-05-06 18:31 33.43219 -112.00730 1122 ft 0 kts 180°
2026-05-06 18:32 33.43211 -112.00723 1124 ft 6 kts 139°
2026-05-06 18:32 33.43211 -112.00631 1125 ft 16 kts 88°
2026-05-06 18:32 33.43215 -112.00477 1127 ft 21 kts 89°
2026-05-06 18:33 33.43214 -112.00336 1120 ft 12 kts 91°
2026-05-06 18:33 33.43213 -112.00224 1121 ft 15 kts 91°
2026-05-06 18:33 33.43214 -112.00088 1120 ft 18 kts 89°
2026-05-06 18:33 33.43214 -111.99943 1124 ft 17 kts 90°
2026-05-06 18:34 33.43214 -111.99824 1126 ft 12 kts 90°
2026-05-06 18:34 33.43215 -111.99709 1122 ft 15 kts 89°
2026-05-06 18:34 33.43215 -111.99580 1126 ft 15 kts 90°
2026-05-06 18:34 33.43214 -111.99444 1122 ft 18 kts 90°
2026-05-06 18:35 33.43207 -111.99367 1123 ft 0 kts 114°
2026-05-06 18:37 33.43198 -111.99355 1121 ft 8 kts 138°
2026-05-06 18:37 33.43121 -111.99350 1135 ft 12 kts 197°
2026-05-06 18:38 33.43103 -111.99412 1132 ft 9 kts 270°
2026-05-06 18:38 33.43103 -111.99431 1136 ft 8 kts 270°
2026-05-06 18:38 33.43103 -111.99762 1132 ft 77 kts 271°
2026-05-06 18:38 33.43105 -112.00661 1131 ft 136 kts 270°
2026-05-06 18:39 33.43106 -112.01945 1393 ft 157 kts 270°
2026-05-06 18:39 33.43098 -112.03229 2131 ft 154 kts 269°
2026-05-06 18:39 33.43072 -112.04527 2710 ft 160 kts 267°
2026-05-06 18:40 33.43281 -112.07587 3315 ft 211 kts 270°
2026-05-06 18:40 33.43291 -112.09412 3829 ft 233 kts 270°
2026-05-06 18:40 33.43319 -112.11439 4663 ft 243 kts 271°
2026-05-06 18:40 33.43361 -112.13462 5806 ft 245 kts 272°
2026-05-06 18:41 33.43416 -112.15538 6770 ft 253 kts 274°
2026-05-06 18:41 33.43851 -112.17551 7676 ft 257 kts 301°
2026-05-06 18:41 33.45047 -112.19112 8693 ft 255 kts 330°
2026-05-06 18:41 33.46708 -112.19789 9795 ft 253 kts 358°
2026-05-06 18:42 33.48469 -112.19774 10733 ft 256 kts
2026-05-06 18:42 33.50276 -112.19700 11660 ft 261 kts
2026-05-06 18:42 33.52105 -112.19630 12593 ft 265 kts
2026-05-06 18:42 33.53701 -112.19396 13382 ft 269 kts 12°
2026-05-06 18:43 33.55572 -112.18840 14095 ft 283 kts 14°
2026-05-06 18:43 33.57539 -112.18252 14396 ft 307 kts 14°
2026-05-06 18:43 33.59677 -112.17545 14686 ft 331 kts 20°
2026-05-06 18:43 33.61803 -112.16270 15030 ft 350 kts 33°
2026-05-06 18:44 33.63684 -112.14385 15787 ft 355 kts 46°
2026-05-06 18:44 33.65383 -112.12208 16599 ft 359 kts 46°
2026-05-06 18:44 33.67112 -112.10007 17336 ft 365 kts 46°
2026-05-06 18:44 33.68868 -112.07778 18127 ft 369 kts 46°
2026-05-06 18:45 33.70638 -112.05530 18840 ft 372 kts 46°
2026-05-06 18:45 33.72421 -112.03262 19555 ft 375 kts 46°
2026-05-06 18:45 33.74217 -112.00972 20237 ft 378 kts 46°
2026-05-06 18:45 33.75912 -111.98543 20921 ft 380 kts 52°
2026-05-06 18:46 33.77512 -111.95999 21628 ft 383 kts 52°
2026-05-06 18:46 33.79134 -111.93437 22336 ft 386 kts 52°
2026-05-06 18:46 33.80768 -111.90860 23032 ft 389 kts 52°
2026-05-06 18:46 33.82412 -111.88267 23693 ft 392 kts 52°
2026-05-06 18:47 33.84073 -111.85644 24239 ft 396 kts 52°
2026-05-06 18:47 33.85746 -111.83001 24769 ft 399 kts 52°
2026-05-06 18:47 33.87436 -111.80329 25299 ft 403 kts 52°
2026-05-06 18:47 33.89139 -111.77631 25719 ft 409 kts 52°
2026-05-06 18:48 33.90867 -111.74894 26233 ft 412 kts 52°
2026-05-06 18:48 33.92605 -111.72138 26756 ft 414 kts 52°
2026-05-06 18:48 33.94353 -111.69364 27233 ft 418 kts 52°
2026-05-06 18:48 33.96118 -111.66562 27730 ft 421 kts 52°
2026-05-06 18:49 33.97899 -111.63752 28163 ft 424 kts 50°
2026-05-06 18:49 33.99882 -111.61112 28591 ft 427 kts 44°
2026-05-06 18:49 34.02122 -111.58749 29025 ft 429 kts 37°
2026-05-06 18:49 34.04584 -111.56689 29438 ft 432 kts 32°
2026-05-06 18:50 34.07136 -111.54751 29893 ft 435 kts 32°
2026-05-06 18:50 34.09700 -111.52784 30294 ft 438 kts 32°
2026-05-06 18:50 34.12283 -111.50795 30634 ft 442 kts 32°
2026-05-06 18:50 34.14884 -111.48790 30990 ft 445 kts 32°
2026-05-06 18:51 34.17503 -111.46773 31366 ft 448 kts 32°
2026-05-06 18:51 34.20139 -111.44743 31764 ft 449 kts 32°
2026-05-06 18:51 34.22777 -111.42709 32149 ft 451 kts 32°
2026-05-06 18:51 34.25430 -111.40664 32438 ft 455 kts 31°
2026-05-06 18:52 34.28101 -111.38603 32786 ft 457 kts 31°
2026-05-06 18:52 34.30785 -111.36530 33140 ft 458 kts 32°
2026-05-06 18:52 34.33473 -111.34450 33501 ft 459 kts 32°
2026-05-06 18:52 34.36146 -111.32379 34146 ft 454 kts 31°
2026-05-06 18:53 34.38811 -111.30313 34392 ft 456 kts 31°
2026-05-06 18:53 34.41493 -111.28237 34630 ft 458 kts 31°
2026-05-06 18:53 34.44184 -111.26152 34866 ft 460 kts 31°
2026-05-06 18:53 34.46883 -111.24061 35060 ft 461 kts 31°
2026-05-06 18:54 34.49590 -111.21960 35324 ft 463 kts 31°
2026-05-06 18:54 34.52268 -111.19880 35600 ft 464 kts 31°
2026-05-06 18:54 34.54986 -111.17766 35866 ft 465 kts 31°
2026-05-06 18:54 34.57709 -111.15647 36114 ft 466 kts 31°
2026-05-06 18:55 34.60435 -111.13512 36355 ft 468 kts 32°
2026-05-06 18:55 34.63040 -111.11111 36577 ft 471 kts 39°
2026-05-06 18:55 34.65411 -111.08383 36955 ft 470 kts 43°
2026-05-06 18:55 34.67718 -111.05579 37180 ft 471 kts 43°
2026-05-06 18:56 34.70052 -111.02764 37400 ft 472 kts 43°
2026-05-06 18:56 34.72385 -110.99953 37610 ft 473 kts 43°
2026-05-06 18:56 34.74725 -110.97127 37833 ft 474 kts 43°
2026-05-06 18:56 34.77065 -110.94296 38054 ft 475 kts 43°
2026-05-06 18:57 34.79407 -110.91457 38273 ft 476 kts 43°
2026-05-06 18:57 34.81758 -110.88604 38511 ft 477 kts 43°
2026-05-06 18:57 34.84104 -110.85753 38700 ft 478 kts 43°
2026-05-06 18:57 34.86461 -110.82887 38886 ft 479 kts 43°
2026-05-06 18:58 34.88818 -110.80018 39075 ft 479 kts 43°
2026-05-06 18:58 34.93555 -110.74246 39125 ft 480 kts 43°
2026-05-06 18:59 34.98220 -110.68549 39119 ft 473 kts 43°
2026-05-06 18:59 35.02890 -110.62841 39119 ft 476 kts 43°
2026-05-06 18:59 35.05229 -110.59978 38990 ft 475 kts 43°
2026-05-06 19:00 35.07560 -110.57121 38993 ft 475 kts 43°
2026-05-06 19:00 35.12228 -110.51393 38994 ft 476 kts 43°
2026-05-06 19:01 35.16894 -110.45658 38986 ft 476 kts 43°
2026-05-06 19:01 35.21565 -110.39906 38962 ft 477 kts 43°
2026-05-06 19:02 35.26214 -110.34171 39000 ft 470 kts 43°
2026-05-06 19:02 35.30804 -110.28500 38981 ft 471 kts 43°
2026-05-06 19:03 35.35414 -110.22798 38984 ft 471 kts 43°
2026-05-06 19:03 35.39987 -110.17129 38985 ft 471 kts 43°
2026-05-06 19:04 35.44622 -110.11373 38979 ft 474 kts 43°
2026-05-06 19:04 35.49257 -110.05610 38977 ft 478 kts 43°
2026-05-06 19:05 35.53916 -109.99802 39000 ft 476 kts 43°
2026-05-06 19:05 35.58493 -109.94082 38976 ft 466 kts 43°
2026-05-06 19:06 35.62324 -109.89297 38969 ft 470 kts 43°
2026-05-06 19:06 35.66902 -109.83565 38965 ft 469 kts 43°
2026-05-06 19:07 35.71489 -109.77929 38965 ft 470 kts 38°
2026-05-06 19:07 35.76403 -109.72591 38968 ft 472 kts 38°
2026-05-06 19:08 35.81316 -109.67237 38957 ft 471 kts 38°
2026-05-06 19:08 35.86202 -109.61897 38950 ft 464 kts 38°
2026-05-06 19:09 35.91014 -109.56629 38942 ft 464 kts 38°
2026-05-06 19:09 35.95848 -109.51331 38948 ft 465 kts 38°
2026-05-06 19:10 36.00673 -109.46030 38947 ft 464 kts 38°
2026-05-06 19:10 36.05532 -109.40684 38952 ft 470 kts 38°
2026-05-06 19:11 36.10412 -109.35303 38964 ft 470 kts 38°
2026-05-06 19:11 36.15257 -109.29949 38955 ft 462 kts 38°
2026-05-06 19:12 36.20045 -109.24654 38965 ft 463 kts 38°
2026-05-06 19:12 36.24849 -109.19333 38966 ft 463 kts 38°
2026-05-06 19:13 36.29647 -109.14007 38961 ft 463 kts 38°
2026-05-06 19:13 36.34457 -109.08660 38965 ft 468 kts 38°
2026-05-06 19:14 36.39346 -109.03217 38962 ft 477 kts 38°
2026-05-06 19:14 36.44281 -108.97709 38954 ft 480 kts 38°
2026-05-06 19:15 36.49248 -108.92156 38967 ft 481 kts 38°
2026-05-06 19:15 36.54214 -108.86595 38958 ft 480 kts 38°
2026-05-06 19:16 36.59172 -108.81033 38960 ft 480 kts 38°
2026-05-06 19:16 36.64137 -108.75453 38965 ft 484 kts 38°
2026-05-06 19:17 36.69142 -108.69819 38978 ft 484 kts 38°
2026-05-06 19:17 36.74101 -108.64221 38989 ft 480 kts 38°
2026-05-06 19:18 36.79060 -108.58619 39000 ft 481 kts 38°
2026-05-06 19:18 36.84021 -108.53003 39022 ft 481 kts 38°
2026-05-06 19:19 36.88976 -108.47383 39023 ft 481 kts 38°
2026-05-06 19:19 36.93930 -108.41755 39043 ft 482 kts 38°
2026-05-06 19:20 36.98904 -108.36095 39027 ft 484 kts 38°
2026-05-06 19:20 37.03873 -108.30425 39031 ft 483 kts 38°
2026-05-06 19:21 37.08833 -108.24758 39020 ft 483 kts 38°
2026-05-06 19:21 37.13803 -108.19069 39022 ft 484 kts 38°
2026-05-06 19:22 37.18767 -108.13375 39016 ft 484 kts 38°
2026-05-06 19:22 37.23731 -108.07672 39014 ft 484 kts 38°
2026-05-06 19:23 37.28641 -108.02020 39013 ft 483 kts 38°
2026-05-06 19:23 37.33591 -107.96312 39016 ft 483 kts 38°
2026-05-06 19:24 37.38536 -107.90599 39021 ft 483 kts 38°
2026-05-06 19:24 37.43482 -107.84874 39013 ft 483 kts 38°
2026-05-06 19:25 37.48418 -107.79149 39021 ft 483 kts 38°
2026-05-06 19:25 37.53359 -107.73408 39027 ft 484 kts 38°
2026-05-06 19:26 37.58345 -107.67610 39007 ft 489 kts 39°
2026-05-06 19:26 37.63308 -107.61820 39022 ft 488 kts 39°
2026-05-06 19:27 37.68289 -107.56000 39007 ft 488 kts 39°
2026-05-06 19:27 37.73277 -107.50167 39030 ft 489 kts 39°
2026-05-06 19:28 37.78262 -107.44315 39015 ft 489 kts 39°
2026-05-06 19:28 37.83214 -107.38471 39043 ft 490 kts 40°
2026-05-06 19:29 37.88199 -107.32580 39019 ft 490 kts 40°
2026-05-06 19:29 37.93148 -107.26721 39018 ft 490 kts 40°
2026-05-06 19:30 37.98127 -107.20820 39025 ft 490 kts 40°
2026-05-06 19:30 38.03105 -107.14910 39012 ft 491 kts 40°
2026-05-06 19:31 38.08072 -107.09002 39012 ft 490 kts 40°
2026-05-06 19:31 38.15449 -106.99925 39005 ft 496 kts 46°
2026-05-06 19:32 38.19882 -106.93198 39010 ft 496 kts 47°
2026-05-06 19:32 38.24322 -106.86477 38990 ft 496 kts 47°
2026-05-06 19:33 38.28760 -106.79734 38851 ft 497 kts 47°
2026-05-06 19:33 38.30974 -106.76361 38612 ft 496 kts 47°
2026-05-06 19:33 38.33178 -106.72997 38333 ft 494 kts 47°
2026-05-06 19:34 38.35378 -106.69634 38093 ft 492 kts 47°
2026-05-06 19:34 38.37572 -106.66278 37824 ft 495 kts 47°
2026-05-06 19:34 38.39768 -106.62916 37617 ft 490 kts 47°
2026-05-06 19:34 38.41931 -106.59598 37371 ft 485 kts 47°
2026-05-06 19:35 38.44088 -106.56289 37108 ft 484 kts 47°
2026-05-06 19:35 38.46210 -106.53032 36857 ft 483 kts 47°
2026-05-06 19:35 38.48383 -106.49694 36605 ft 482 kts 47°
2026-05-06 19:35 38.50490 -106.46452 36414 ft 480 kts 47°
2026-05-06 19:36 38.52617 -106.43175 36176 ft 479 kts 47°
2026-05-06 19:36 38.54741 -106.39901 35939 ft 477 kts 46°
2026-05-06 19:36 38.56854 -106.36640 35709 ft 476 kts 46°
2026-05-06 19:36 38.58959 -106.33389 35516 ft 476 kts 46°
2026-05-06 19:37 38.61080 -106.30111 35292 ft 479 kts 46°
2026-05-06 19:37 38.63182 -106.26857 35056 ft 477 kts 46°
2026-05-06 19:37 38.65289 -106.23591 34822 ft 475 kts 46°
2026-05-06 19:37 38.66709 -106.21398 34683 ft 474 kts 46°
2026-05-06 19:38 38.69479 -106.17164 34413 ft 461 kts 46°
2026-05-06 19:38 38.71510 -106.14065 34190 ft 448 kts 46°
2026-05-06 19:38 38.73487 -106.11044 33939 ft 440 kts 46°
2026-05-06 19:38 38.75443 -106.08056 33397 ft 442 kts 46°
2026-05-06 19:39 38.77417 -106.05037 32665 ft 443 kts 46°
2026-05-06 19:39 38.79395 -106.02012 31876 ft 443 kts 46°
2026-05-06 19:39 38.81367 -105.98991 31187 ft 440 kts 46°
2026-05-06 19:39 38.83340 -105.95959 30165 ft 446 kts 47°
2026-05-06 19:40 38.85326 -105.92898 29309 ft 445 kts 47°
2026-05-06 19:40 38.87284 -105.89874 28833 ft 435 kts 47°
2026-05-06 19:40 38.89194 -105.86917 28317 ft 427 kts 47°
2026-05-06 19:40 38.91063 -105.84012 27949 ft 418 kts 47°
2026-05-06 19:41 38.92909 -105.81133 27657 ft 418 kts 47°
2026-05-06 19:41 38.94768 -105.78235 27238 ft 423 kts 47°
2026-05-06 19:41 38.96637 -105.75316 26713 ft 419 kts 47°
2026-05-06 19:41 38.98465 -105.72456 26281 ft 411 kts 47°
2026-05-06 19:42 39.00277 -105.69623 25574 ft 410 kts 47°
2026-05-06 19:42 39.02076 -105.66809 25030 ft 405 kts 47°
2026-05-06 19:42 39.03857 -105.64035 24678 ft 400 kts 47°
2026-05-06 19:42 39.05643 -105.61272 24266 ft 416 kts 47°
2026-05-06 19:43 39.07505 -105.58389 23832 ft 419 kts 47°
2026-05-06 19:43 39.09374 -105.55480 23369 ft 412 kts 47°
2026-05-06 19:43 39.11181 -105.52663 22955 ft 406 kts 47°
2026-05-06 19:43 39.12953 -105.49900 22564 ft 404 kts 47°
2026-05-06 19:44 39.14726 -105.47132 22167 ft 396 kts 47°
2026-05-06 19:44 39.16455 -105.44413 21787 ft 388 kts 47°
2026-05-06 19:44 39.18141 -105.41733 21426 ft 384 kts 48°
2026-05-06 19:44 39.19821 -105.39059 21061 ft 384 kts 48°
2026-05-06 19:45 39.21502 -105.36380 20694 ft 383 kts 48°
2026-05-06 19:45 39.23167 -105.33721 20346 ft 379 kts 48°
2026-05-06 19:45 39.24788 -105.31136 20243 ft 365 kts 47°
2026-05-06 19:45 39.26362 -105.28630 20062 ft 354 kts 47°
2026-05-06 19:46 39.27800 -105.26039 19435 ft 361 kts 59°
2026-05-06 19:46 39.28714 -105.23029 18982 ft 362 kts 75°
2026-05-06 19:46 39.29134 -105.19836 18585 ft 359 kts 81°
2026-05-06 19:46 39.29504 -105.16662 18145 ft 356 kts 81°
2026-05-06 19:47 39.29876 -105.13515 17711 ft 352 kts 81°
2026-05-06 19:47 39.30239 -105.10432 17452 ft 340 kts 81°
2026-05-06 19:47 39.30583 -105.07499 17275 ft 322 kts 80°
2026-05-06 19:47 39.30908 -105.04721 17112 ft 304 kts 80°
2026-05-06 19:48 39.31217 -105.02080 16996 ft 291 kts 80°
2026-05-06 19:48 39.31560 -104.99530 16612 ft 286 kts 75°
2026-05-06 19:48 39.32031 -104.97045 16213 ft 283 kts 75°
2026-05-06 19:48 39.32493 -104.94586 15835 ft 280 kts 75°
2026-05-06 19:49 39.32948 -104.92150 15464 ft 278 kts 75°
2026-05-06 19:49 39.33398 -104.89731 15071 ft 276 kts 75°
2026-05-06 19:49 39.33864 -104.87346 14688 ft 272 kts 70°
2026-05-06 19:49 39.34449 -104.85044 14331 ft 269 kts 69°
2026-05-06 19:50 39.35030 -104.82755 13954 ft 266 kts 70°
2026-05-06 19:50 39.35602 -104.80494 13546 ft 263 kts 70°
2026-05-06 19:50 39.36185 -104.78264 13155 ft 260 kts 66°
2026-05-06 19:50 39.36837 -104.76108 13018 ft 259 kts 67°
2026-05-06 19:51 39.37491 -104.73929 12997 ft 260 kts 67°
2026-05-06 19:51 39.38140 -104.71755 12998 ft 260 kts 67°
2026-05-06 19:51 39.39020 -104.69736 13008 ft 257 kts 46°
2026-05-06 19:51 39.40400 -104.68312 13007 ft 253 kts 28°
2026-05-06 19:52 39.41884 -104.67208 12995 ft 237 kts 20°
2026-05-06 19:52 39.43406 -104.66649 13005 ft 223 kts
2026-05-06 19:52 39.44957 -104.66493 12980 ft 223 kts 359°
2026-05-06 19:52 39.46499 -104.66480 12724 ft 221 kts 358°
2026-05-06 19:53 39.48003 -104.66471 12498 ft 222 kts 358°
2026-05-06 19:53 39.49552 -104.66453 12357 ft 223 kts 358°
2026-05-06 19:53 39.51102 -104.66434 12162 ft 222 kts 358°
2026-05-06 19:53 39.52649 -104.66416 11928 ft 222 kts 359°
2026-05-06 19:54 39.54171 -104.66397 11657 ft 213 kts 359°
2026-05-06 19:54 39.55619 -104.66380 11389 ft 205 kts 359°
2026-05-06 19:54 39.57054 -104.66363 11119 ft 207 kts 359°
2026-05-06 19:54 39.58494 -104.66346 10838 ft 206 kts 359°
2026-05-06 19:55 39.59927 -104.66329 10557 ft 207 kts 360°
2026-05-06 19:55 39.61366 -104.66312 10289 ft 207 kts
2026-05-06 19:55 39.62323 -104.66301 10040 ft 207 kts
2026-05-06 19:55 39.64238 -104.66278 9488 ft 204 kts
2026-05-06 19:56 39.65177 -104.66266 9225 ft 203 kts
2026-05-06 19:56 39.66592 -104.66249 8831 ft 202 kts
2026-05-06 19:56 39.67986 -104.66233 8456 ft 199 kts
2026-05-06 19:56 39.69346 -104.66216 8183 ft 191 kts
2026-05-06 19:57 39.70638 -104.66201 7947 ft 181 kts
2026-05-06 19:57 39.71869 -104.66186 7704 ft 175 kts
2026-05-06 19:57 39.73081 -104.66172 7475 ft 169 kts
2026-05-06 19:57 39.74183 -104.66158 7257 ft 149 kts
2026-05-06 19:58 39.75169 -104.66146 7064 ft 136 kts
2026-05-06 19:58 39.76128 -104.66135 6889 ft 138 kts
2026-05-06 19:58 39.77083 -104.66124 6716 ft 137 kts
2026-05-06 19:58 39.78035 -104.66112 6522 ft 136 kts
2026-05-06 19:59 39.78979 -104.66101 6313 ft 134 kts
2026-05-06 19:59 39.79911 -104.66090 6101 ft 134 kts
2026-05-06 19:59 39.80814 -104.66079 5910 ft 135 kts
2026-05-06 19:59 39.81750 -104.66069 5718 ft 134 kts
2026-05-06 20:00 39.82682 -104.66062 5530 ft 134 kts
2026-05-06 20:00 39.83583 -104.66048 5428 ft 121 kts
2026-05-06 20:00 39.84231 -104.66035 5411 ft 64 kts
2026-05-06 20:00 39.84543 -104.66035 5408 ft 35 kts 358°
2026-05-06 20:01 39.84772 -104.66076 5410 ft 27 kts 345°
2026-05-06 20:01 39.84923 -104.66168 5401 ft 22 kts 330°
2026-05-06 20:01 39.85029 -104.66231 5397 ft 14 kts 344°
2026-05-06 20:01 39.85094 -104.66243 5395 ft 11 kts 358°
2026-05-06 20:02 39.85185 -104.66245 5398 ft 10 kts 359°
2026-05-06 20:02 39.85212 -104.66303 5390 ft 12 kts 269°
2026-05-06 20:02 39.85208 -104.66447 5391 ft 19 kts 267°
2026-05-06 20:02 39.85230 -104.66598 5387 ft 13 kts 282°
2026-05-06 20:03 39.85271 -104.66693 5384 ft 12 kts 302°
2026-05-06 20:03 39.85329 -104.66721 5383 ft 2 kts
2026-05-06 20:03 39.85352 -104.66721 5383 ft 2 kts 360°
2026-05-06 20:03 39.85364 -104.66721 5383 ft 0 kts
2026-05-06 20:04 39.85366 -104.66721 5383 ft 0 kts